Mount Holly, NJ

12:23 AM EDT on September 20, 2017 (GMT -0400)
South Jersey Regional

Weather History for KVAY - March, 2014

Change the Weather History Date:

Monday, March 10, 2014

  Actual Average (KPNE) Record (KPNE)
Temperature  
Mean Temperature 44 °F -  
Max Temperature 54 °F 46 °F 82 °F (2016)
Min Temperature 34 °F 29 °F 19 °F (2003)
Degree Days  
Heating Degree Days 21    
Moisture  
Dew Point 24 °F    
Average Humidity 47    
Maximum Humidity 62    
Minimum Humidity 37    
Precipitation  
Precipitation 0.00 in - - ()
Sea Level Pressure  
Sea Level Pressure 29.80 in    
Wind  
Wind Speed 5 mph (SW)    
Max Wind Speed 10 mph    
Max Gust Speed 18 mph    
Visibility 10 miles    
Events      
Averages and records for this station are not official NWS values.
T = Trace of Precipitation, MM = Missing Value Source: NWS Daily Summary

Daily Weather History Graph

Daily Weather History Graph

Search for Another Location

Airport or City:

Trip Planner

Search our weather history database for the weather conditions in past years. The results will help you decide how hot, cold, wet, or windy it might be!

Date:

Astronomy

Mar. 10, 2014 Rise Set
Actual Time 7:18 AM EDT 7:01 PM EDT
Civil Twilight 6:51 AM EDT 7:28 PM EDT
Nautical Twilight 6:20 AM EDT 7:59 PM EDT
Astronomical Twilight 5:49 AM EDT 8:31 PM EDT
Moon 1:42 PM EDT (3/10) 3:28 AM EDT (3/10)
Length of Visible Light 12h 36m
Length of Day
11h 42m
Waxing Gibbous, 70% of the Moon is Illuminated
Mar 10
Waxing Gibbous
Mar 16
Full
Mar 23
Last Quarter
Mar 30
New
Apr 7
First Quarter

Hourly Weather History & Observations

Time (EDT) Temp. Windchill Dew Point Humidity Pressure Visibility Wind Dir Wind Speed Gust Speed Precip Events Conditions
12:54 AM 36.0 °F - 18.0 °F 48% 29.97 in 10.0 mi Calm Calm - N/A   Mostly Cloudy
1:54 AM 36.0 °F - 18.0 °F 48% 29.95 in 10.0 mi Calm Calm - N/A   Mostly Cloudy
2:54 AM 34.0 °F 31.0 °F 19.0 °F 54% 29.92 in 10.0 mi SW 3.5 mph - N/A   Scattered Clouds
3:54 AM 36.0 °F 32.1 °F 18.0 °F 48% 29.90 in 10.0 mi SW 4.6 mph - N/A   Overcast
4:54 AM 36.0 °F 32.1 °F 17.1 °F 46% 29.89 in 10.0 mi SW 4.6 mph - N/A   Overcast
5:54 AM 37.0 °F 31.0 °F 17.1 °F 44% 29.90 in 10.0 mi SW 8.1 mph - N/A   Partly Cloudy
6:54 AM 37.0 °F 31.0 °F 18.0 °F 46% 29.89 in 10.0 mi SW 8.1 mph - N/A   Overcast
7:54 AM 37.0 °F 32.4 °F 18.0 °F 46% 29.89 in 10.0 mi SW 5.8 mph - N/A   Scattered Clouds
8:54 AM 39.0 °F 32.3 °F 19.0 °F 45% 29.89 in 10.0 mi SW 10.4 mph - N/A   Overcast
9:54 AM 42.1 °F 36.6 °F 19.0 °F 40% 29.87 in 10.0 mi WSW 9.2 mph - N/A   Overcast
10:54 AM 46.0 °F 41.0 °F 21.0 °F 37% 29.85 in 10.0 mi SW 10.4 mph - N/A   Overcast
11:54 AM 46.9 °F - 24.1 °F 41% 29.83 in 10.0 mi WSW 8.1 mph - N/A   Overcast
12:54 PM 48.0 °F - 25.0 °F 41% 29.83 in 10.0 mi WSW 8.1 mph - N/A   Overcast
1:54 PM 50.0 °F - 27.0 °F 41% 29.77 in 10.0 mi WSW 10.4 mph 18.4 mph N/A   Mostly Cloudy
2:54 PM 51.1 °F - 28.0 °F 41% 29.75 in 10.0 mi SSW 8.1 mph - N/A   Overcast
3:54 PM 51.1 °F - 28.0 °F 41% 29.74 in 10.0 mi WSW 6.9 mph - N/A   Overcast
4:54 PM 53.1 °F - 28.9 °F 40% 29.71 in 10.0 mi SW 6.9 mph - N/A   Clear
5:54 PM 54.0 °F - 30.0 °F 40% 29.68 in 10.0 mi SW 9.2 mph - N/A   Clear
6:54 PM 51.1 °F - 30.0 °F 44% 29.68 in 10.0 mi SW 3.5 mph - N/A   Clear
7:54 PM 45.0 °F 43.5 °F 30.0 °F 56% 29.70 in 10.0 mi South 3.5 mph - N/A   Clear
8:54 PM 44.1 °F 42.5 °F 30.0 °F 58% 29.69 in 10.0 mi South 3.5 mph - N/A   Clear
9:54 PM 44.1 °F 41.5 °F 30.0 °F 58% 29.68 in 10.0 mi South 4.6 mph - N/A   Clear
10:54 PM 42.1 °F 39.2 °F 30.0 °F 62% 29.67 in 10.0 mi South 4.6 mph - N/A   Clear
11:54 PM 42.1 °F 39.2 °F 30.0 °F 62% 29.63 in 10.0 mi South 4.6 mph - N/A   Clear